SR2WXM Weather Reports


time (UTC)temp
C
wind
direction
speed
KPH
gust
KPH
rain 1hr
cm
rain 24hr
cm
rain mn
cm
humidity
%
barometer
mb
20260503021502 8 227 0.0 1.6 0.00 0.00 0.00 70 1014.5
20260503020002 8 180 1.6 3.2 0.00 0.00 0.00 70 1014.5
20260503014501 10 188 3.2 4.8 0.00 0.00 0.00 69 1014.5
20260503013002 10 216 0.0 3.2 0.00 0.00 0.00 70 1014.9
20260503011502 10 205 1.6 4.8 0.00 0.00 0.00 72 1014.9
20260503010002 10 196 4.8 4.8 0.00 0.00 0.00 71 1014.9
20260503004501 10 186 1.6 3.2 0.00 0.00 0.00 71 1014.9
20260503003002 10 202 1.6 1.6 0.00 0.00 0.00 69 1014.9
20260503001502 10 213 0.0 1.6 0.00 0.00 0.00 67 1015.2
20260503000003 10 212 1.6 1.6 0.00 0.00 0.00 67 1015.2
20260502234503 10 216 0.0 1.6 0.00 0.00 0.00 67 1015.2
20260502233002 10 225 0.0 0.0 0.00 0.00 0.00 70 1015.2
20260502231502 10 227 0.0 0.0 0.00 0.00 0.00 69 1015.2
20260502230002 10 225 0.0 0.0 0.00 0.00 0.00 72 1015.9
20260502224502 10 197 1.6 3.2 0.00 0.00 0.00 70 1015.9
20260502223003 11 230 1.6 3.2 0.00 0.00 0.00 64 1015.9
20260502221502 11 230 0.0 0.0 0.00 0.00 0.00 63 1015.9
20260502220001 12 202 1.6 1.6 0.00 0.00 0.00 63 1016.2
20260502214503 11 221 0.0 1.6 0.00 0.00 0.00 63 1016.2
20260502213003 11 215 1.6 1.6 0.00 0.00 0.00 64 1016.2
20260502211501 12 226 0.0 1.6 0.00 0.00 0.00 59 1016.2
20260502210003 12 224 0.0 0.0 0.00 0.00 0.00 58 1016.2
20260502204502 12 224 1.6 3.2 0.00 0.00 0.00 61 1016.2
20260502203003 13 224 1.6 1.6 0.00 0.00 0.00 60 1016.5
20260502201502 13 223 1.6 1.6 0.00 0.00 0.00 55 1016.5
20260502200004 13 234 0.0 1.6 0.00 0.00 0.00 55 1016.5
20260502194502 15 221 1.6 1.6 0.00 0.00 0.00 49 1016.5
20260502193003 15 216 1.6 1.6 0.00 0.00 0.00 49 1016.5
20260502191502 16 220 1.6 1.6 0.00 0.00 0.00 47 1016.5
20260502190004 16 220 1.6 1.6 0.00 0.00 0.00 44 1016.5
20260502184502 17 216 1.6 1.6 0.00 0.00 0.00 43 1016.5
20260502183001 17 241 1.6 1.6 0.00 0.00 0.00 41 1016.5
20260502181502 18 220 1.6 1.6 0.00 0.00 0.00 38 1016.5
20260502163002 23 185 8.0 9.7 0.00 0.00 0.00 30 1016.9
20260502161501 25 208 6.4 8.0 0.00 0.00 0.00 30 1017.2
20260502151502 25 203 12.9 16.1 0.00 0.00 0.00 30 1017.6
20260502123009 25 203 3.2 4.8 0.00 0.00 0.00 28 1019.9
20260502121502 25 210 8.0 12.9 0.00 0.00 0.00 29 1019.9
20260502114502 25 225 1.6 1.6 0.00 0.00 0.00 31 1019.9
20260502113002 25 176 3.2 4.8 0.00 0.00 0.00 30 1019.9
20260502111502 25 240 4.8 9.7 0.00 0.00 0.00 29 1020.3
20260502110002 25 236 1.6 3.2 0.00 0.00 0.00 28 1020.6
20260502104502 23 198 8.0 11.3 0.00 0.00 0.00 27 1020.6
20260502103002 25 217 12.9 14.5 0.00 0.00 0.00 27 1020.6
20260502101502 25 235 6.4 8.0 0.00 0.00 0.00 30 1020.6
20260502091502 23 223 1.6 4.8 0.00 0.00 0.00 31 1021.6
20260502071502 20 173 4.8 6.4 0.00 0.00 0.00 40 1022.3
20260502070001 20 228 1.6 1.6 0.00 0.00 0.00 41 1022.3
20260502064501 18 250 1.6 3.2 0.00 0.00 0.00 40 1022.6
20260502063002 18 220 4.8 4.8 0.00 0.00 0.00 39 1022.6
20260502061502 18 234 0.0 0.0 0.00 0.00 0.00 37 1022.6
20260502060002 17 238 0.0 0.0 0.00 0.00 0.00 38 1022.6
20260502054502 16 238 0.0 0.0 0.00 0.00 0.00 44 1022.6
20260502053002 13 234 0.0 0.0 0.00 0.00 0.00 58 1022.6
20260502051502 10 242 0.0 0.0 0.00 0.00 0.00 66 1022.6
20260502050001 8 242 0.0 0.0 0.00 0.00 0.00 80 1022.6
20260502044502 7 242 0.0 0.0 0.00 0.00 0.00 86 1022.6
20260502043002 6 241 0.0 0.0 0.00 0.00 0.00 89 1022.6
20260502041502 6 241 0.0 0.0 0.00 0.00 0.00 83 1022.3
20260502040003 5 244 0.0 0.0 0.00 0.00 0.00 89 1022.6
20260502034502 5 232 0.0 0.0 0.00 0.00 0.00 95 1022.6
20260502033002 3 231 0.0 0.0 0.00 0.00 0.00 99 1022.6
20260502031502 3 234 0.0 0.0 0.00 0.00 0.00 98 1022.6
20260502030001 3 235 0.0 0.0 0.00 0.00 0.00 97 1022.6
20260502024503 3 234 0.0 0.0 0.00 0.00 0.00 95 1022.6
20260502023002 3 230 0.0 0.0 0.00 0.00 0.00 96 1022.6